This is the latest recevied weather packets stored in our database for station/object IK2ILW-6. If no packets are shown the sender has not sent any weather packets the latest 10 day(s).
| Time | Temp. | Humidity | Pressure | Rain* | Wind** | Luminosity | Snow |
|---|---|---|---|---|---|---|---|
| 1777743390 | 8.89° C | 70% | 1024.1 hPa | 0 mm | - | 70 W/m² | - |
| 1777742783 | 9.44° C | 67% | 1024.1 hPa | 0 mm | - | 104 W/m² | - |
| 1777742488 | 10° C | 67% | 1024.1 hPa | 0 mm | - | 113 W/m² | - |
| 1777742192 | 10° C | 66% | 1024.1 hPa | 0 mm | - | 146 W/m² | - |
| 1777740990 | 10.56° C | 66% | 1024.1 hPa | 0 mm | - | 220 W/m² | - |
| 1777740397 | 10.56° C | 66% | 1024.2 hPa | 0 mm | - | 278 W/m² | - |
| 1777739790 | 10.56° C | 66% | 1024.3 hPa | 0 mm | - | 309 W/m² | - |
| 1777739198 | 10.56° C | 67% | 1024.4 hPa | 0 mm | - | 329 W/m² | - |
| 1777738883 | 10.56° C | 67% | 1024.4 hPa | 0 mm | - | 362 W/m² | - |
| 1777738588 | 10° C | 68% | 1024.5 hPa | 0 mm | - | 348 W/m² | - |
| 1777738293 | 10.56° C | 68% | 1024.6 hPa | 0 mm | - | 360 W/m² | - |
| 1777737998 | 10.56° C | 68% | 1024.6 hPa | 0 mm | - | 345 W/m² | - |
| 1777737683 | 10° C | 69% | 1024.6 hPa | 0 mm | - | 415 W/m² | - |
| 1777737091 | 10° C | 67% | 1024.6 hPa | 0 mm | - | 445 W/m² | - |
| 1777736186 | 10° C | 69% | 1024.6 hPa | 0 mm | - | 490 W/m² | - |
| 1777735891 | 10.56° C | 67% | 1024.7 hPa | 0 mm | - | 506 W/m² | - |
| 1777735595 | 10.56° C | 68% | 1024.7 hPa | 0 mm | - | 519 W/m² | - |
| 1777735298 | 10.56° C | 68% | 1024.8 hPa | 0 mm | - | 534 W/m² | - |
| 1777734982 | 10.56° C | 69% | 1024.8 hPa | 0 mm | - | 547 W/m² | - |
| 1777734686 | 10° C | 69% | 1024.8 hPa | 0 mm | - | 554 W/m² | - |
| 1777734390 | 10.56° C | 69% | 1024.9 hPa | 0 mm | - | 575 W/m² | - |
| 1777734095 | 10.56° C | 68% | 1024.9 hPa | 0 mm | - | 584 W/m² | - |
| 1777733799 | 10.56° C | 68% | 1024.9 hPa | 0 mm | - | 587 W/m² | - |
| 1777733487 | 10.56° C | 72% | 1024.9 hPa | 0 mm | - | 608 W/m² | - |
| 1777732896 | 10° C | 69% | 1024.9 hPa | 0 mm | - | 633 W/m² | - |
* Rain latest hour (hover to see other rain measurements)
** Current wind speed in m/s (hover to see current wind gust speed)